DW6345 Murcia ES current weather conditions

sailwx.info

Wind from 042 at 2 knots gusting 4

Air temperature 26.7° C
Dewpoint 16.9° C

Last reported at 2017-Jul-23 22:09 UTC.
Time now 2017-Jul-23 22:39 UTC

Location: N 37°60' W 001°06'.
View on Google Maps.

See reports from other nearby stations

  
Tides and Currents Weather Stations Pressure Air Temp Water Temp Dewpoint Dewpoint Depression Visibility Wind Speed Wind Dir Waves Ship Positions
date/time (UTC)wind fromknots sea level pressurealtimeterstation pressurevisibilityair tempwater tempwave heightnotes
2017-Jul-23 22:09 042 2 gusting 4 26.7
2017-Jul-23 22:04 055 4 gusting 4 26.7
2017-Jul-23 21:59 060 4 gusting 5 26.7
2017-Jul-23 21:54 041 4 gusting 5 26.7
2017-Jul-23 21:49 031 4 gusting 7 26.7
2017-Jul-23 21:44 024 4 gusting 5 26.7
2017-Jul-23 21:39 051 4 gusting 8 27.2
2017-Jul-23 21:34 063 4 gusting 6 27.2
2017-Jul-23 21:29 047 4 gusting 6 27.2
2017-Jul-23 21:24 046 4 gusting 8 27.2
2017-Jul-23 21:19 051 4 gusting 6 27.2
2017-Jul-23 21:14 061 4 gusting 7 27.2
2017-Jul-23 21:09 046 4 gusting 8 27.2
2017-Jul-23 21:04 043 4 gusting 7 27.2
2017-Jul-23 20:59 052 4 gusting 7 27.2
2017-Jul-23 20:54 043 4 gusting 7 27.2
2017-Jul-23 20:49 043 4 gusting 7 27.2
2017-Jul-23 20:44 072 4 gusting 6 27.2
2017-Jul-23 20:39 036 4 gusting 7 27.2
2017-Jul-23 20:34 039 5 gusting 7 27.8
2017-Jul-23 20:29 044 5 gusting 7 27.8
2017-Jul-23 20:24 055 6 gusting 8 27.8
2017-Jul-23 20:19 050 6 gusting 13 27.8
2017-Jul-23 20:14 043 5 gusting 11 28.3
2017-Jul-23 20:09 037 5 gusting 11 28.3
2017-Jul-23 20:04 037 5 gusting 8 28.9
2017-Jul-23 19:59 049 5 gusting 7 28.9
2017-Jul-23 19:54 045 5 gusting 7 28.9
2017-Jul-23 19:49 037 5 gusting 10 28.9
2017-Jul-23 19:44 069 5 gusting 8 28.9
2017-Jul-23 19:39 049 5 gusting 11 29.4
2017-Jul-23 19:34 064 4 gusting 8 29.4
2017-Jul-23 19:29 069 4 gusting 8 29.4
2017-Jul-23 19:24 041 5 gusting 8 29.4
2017-Jul-23 19:19 072 5 gusting 6 30.0
2017-Jul-23 19:14 091 6 gusting 10 30.0
2017-Jul-23 19:09 092 6 gusting 12 30.0
2017-Jul-23 19:04 103 6 gusting 7 30.0
2017-Jul-23 18:59 109 6 gusting 13 30.0
2017-Jul-23 18:54 104 6 gusting 12 30.0
2017-Jul-23 18:49 106 6 gusting 13 30.6
2017-Jul-23 18:44 093 7 gusting 10 30.6
2017-Jul-23 18:39 113 7 gusting 13 30.6
2017-Jul-23 18:34 110 8 gusting 13 30.6
2017-Jul-23 18:29 107 8 gusting 17 31.1
2017-Jul-23 18:24 116 8 gusting 13 31.1
2017-Jul-23 18:19 110 8 gusting 13 31.1
2017-Jul-23 18:14 104 10 gusting 13 31.1
2017-Jul-23 18:09 107 10 gusting 18 31.1
2017-Jul-23 18:04 112 7 gusting 15 31.7
2017-Jul-23 17:59 103 7 gusting 15 31.7
2017-Jul-23 17:54 115 7 gusting 14 31.7
2017-Jul-23 17:49 105 7 gusting 14 31.7
2017-Jul-23 17:44 100 8 gusting 13 31.7
2017-Jul-23 17:39 090 8 gusting 14 31.7
2017-Jul-23 17:34 097 8 gusting 13 31.7
2017-Jul-23 17:29 105 8 gusting 17 32.2
2017-Jul-23 17:24 115 8 gusting 13 32.2
2017-Jul-23 17:19 111 8 gusting 14 32.2
2017-Jul-23 17:14 098 8 gusting 15 32.2
2017-Jul-23 17:09 109 8 gusting 14 32.2
2017-Jul-23 17:04 105 10 gusting 15 32.2
2017-Jul-23 16:59 109 10 gusting 17 32.8
2017-Jul-23 16:54 106 10 gusting 15 32.8
2017-Jul-23 16:49 114 10 gusting 17 32.8
2017-Jul-23 16:44 111 7 gusting 15 33.3
2017-Jul-23 16:39 106 7 gusting 15 33.3
2017-Jul-23 16:34 120 6 gusting 12 33.3
2017-Jul-23 16:29 115 6 gusting 11 33.9
2017-Jul-23 16:24 089 4 gusting 12 33.9
2017-Jul-23 16:19 100 4 gusting 12 33.9
2017-Jul-23 16:14 059 6 gusting 7 33.9
2017-Jul-23 16:09 056 7 gusting 12 33.9
2017-Jul-23 16:04 051 8 gusting 17 33.9
2017-Jul-23 15:59 051 8 gusting 13 33.9
2017-Jul-23 15:54 030 7 gusting 13 33.9
2017-Jul-23 15:49 035 7 gusting 13 33.9
2017-Jul-23 15:44 031 6 gusting 13 33.9
2017-Jul-23 15:39 026 6 gusting 12 33.9
2017-Jul-23 15:34 050 6 gusting 7 33.9
2017-Jul-23 15:29 019 6 gusting 10 33.3
2017-Jul-23 15:24 058 6 gusting 13 33.3
2017-Jul-23 15:19 047 6 gusting 13 33.3
2017-Jul-23 15:14 050 7 gusting 13 33.3
2017-Jul-23 15:09 022 7 gusting 13 33.3
2017-Jul-23 15:04 020 6 gusting 13 33.3
2017-Jul-23 14:59 034 6 gusting 11 33.3
2017-Jul-23 14:54 036 6 gusting 12 33.3
2017-Jul-23 14:49 032 6 gusting 13 33.3
2017-Jul-23 14:44 057 6 gusting 10 33.3
2017-Jul-23 14:39 029 6 gusting 10 33.3
2017-Jul-23 14:34 050 6 gusting 10 33.3
2017-Jul-23 14:29 048 6 gusting 12 33.3
2017-Jul-23 14:24 020 6 gusting 12 33.3
2017-Jul-23 14:19 046 6 gusting 13 33.3
2017-Jul-23 14:14 024 6 gusting 10 32.8
2017-Jul-23 14:09 029 6 gusting 12 33.3
2017-Jul-23 14:04 038 6 gusting 11 33.3
2017-Jul-23 13:59 049 6 gusting 12 32.8
2017-Jul-23 13:54 032 6 gusting 14 32.8
2017-Jul-23 13:49 016 6 gusting 11 32.8
2017-Jul-23 13:44 058 6 gusting 13 32.8
2017-Jul-23 13:39 012 6 gusting 13 32.8
2017-Jul-23 13:34 009 6 gusting 13 32.2
2017-Jul-23 13:29 022 6 gusting 12 32.2
2017-Jul-23 13:24 003 6 gusting 11 32.2
2017-Jul-23 13:19 021 6 gusting 12 32.2
2017-Jul-23 13:14 028 7 gusting 10 31.7
2017-Jul-23 13:09 033 7 gusting 13 32.2
2017-Jul-23 13:04 009 6 gusting 13 32.2
2017-Jul-23 12:59 019 6 gusting 14 32.2
2017-Jul-23 12:54 021 6 gusting 11 32.2
2017-Jul-23 12:49 047 6 gusting 14 31.7
2017-Jul-23 12:44 041 6 gusting 13 32.2
2017-Jul-23 12:39 044 6 gusting 11 32.2
2017-Jul-23 12:34 053 7 gusting 7 31.7
2017-Jul-23 12:29 043 7 gusting 13 31.7
2017-Jul-23 12:24 012 6 gusting 13 31.7
2017-Jul-23 12:19 047 6 gusting 14 31.7
2017-Jul-23 12:14 017 6 gusting 13 31.7
2017-Jul-23 12:09 032 6 gusting 13 31.7
2017-Jul-23 12:04 027 6 gusting 11 31.1
2017-Jul-23 11:59 033 6 gusting 13 31.1
2017-Jul-23 11:54 045 6 gusting 10 31.7
2017-Jul-23 11:49 064 6 gusting 12 31.1
2017-Jul-23 11:44 037 7 gusting 11 31.1
2017-Jul-23 11:39 022 7 gusting 14 31.1
2017-Jul-23 11:34 043 6 gusting 14 31.1
2017-Jul-23 11:29 037 6 gusting 13 31.1
2017-Jul-23 11:24 048 7 gusting 13 30.6
2017-Jul-23 11:19 011 7 gusting 12 30.6
2017-Jul-23 11:14 033 6 gusting 12 30.6
2017-Jul-23 11:09 032 6 gusting 13 30.6
2017-Jul-23 11:04 050 6 gusting 11 30.6
2017-Jul-23 10:59 020 6 gusting 10 30.6
2017-Jul-23 10:54 039 6 gusting 11 30.6
2017-Jul-23 10:49 031 6 gusting 13 30.6
2017-Jul-23 10:44 030 6 gusting 8 30.0
2017-Jul-23 10:39 035 6 gusting 12 30.0
2017-Jul-23 10:34 035 6 gusting 12 30.0
2017-Jul-23 10:29 014 6 gusting 11 29.4
2017-Jul-23 10:24 033 5 gusting 10 29.4
2017-Jul-23 10:19 025 5 gusting 12 29.4
2017-Jul-23 10:14 050 5 gusting 12 29.4
2017-Jul-23 10:09 031 5 gusting 11 29.4
2017-Jul-23 10:04 041 6 gusting 11 29.4
2017-Jul-23 09:59 045 6 gusting 7 28.9
2017-Jul-23 09:54 042 5 gusting 12 28.9
2017-Jul-23 09:49 030 5 gusting 11 28.9
2017-Jul-23 09:44 050 5 gusting 10 28.3
2017-Jul-23 09:39 025 5 gusting 8 28.3
2017-Jul-23 09:34 019 5 gusting 7 28.3
2017-Jul-23 09:29 344 5 gusting 8 28.3
2017-Jul-23 09:24 008 6 gusting 8 27.8
2017-Jul-23 09:19 039 6 gusting 8 27.2
2017-Jul-23 09:14 021 5 gusting 8 27.2
2017-Jul-23 09:09 029 5 gusting 8 27.2
2017-Jul-23 09:04 030 5 gusting 10 27.2
2017-Jul-23 08:59 030 5 gusting 7 27.2
2017-Jul-23 08:54 014 4 gusting 7 27.2
2017-Jul-23 08:49 037 4 gusting 8 27.2
2017-Jul-23 08:44 050 2 gusting 6 26.7
2017-Jul-23 08:39 057 2 gusting 6 26.7
2017-Jul-23 08:34 063 2 gusting 4 26.7
2017-Jul-23 08:29 055 2 gusting 6 26.7
2017-Jul-23 08:24 321 1 gusting 6 26.7
2017-Jul-23 08:19 329 1 gusting 4 26.7
2017-Jul-23 08:14 343 1 gusting 2 26.1
2017-Jul-23 08:09 282 1 gusting 4 26.1
2017-Jul-23 08:04 305 1 gusting 4 25.6
2017-Jul-23 07:59 031 2 gusting 4 25.6
2017-Jul-23 07:54 318 2 gusting 4 25.6
2017-Jul-23 07:49 015 2 gusting 5 25.6
2017-Jul-23 07:44 314 1 gusting 6 25.6
2017-Jul-23 07:39 031 1 gusting 4 25.0
2017-Jul-23 07:34 105 1 gusting 5 25.0
2017-Jul-23 07:29 125 2 gusting 4 25.0
2017-Jul-23 07:24 091 4 gusting 5 25.0
2017-Jul-23 07:19 059 3 gusting 5 25.0
2017-Jul-23 07:14 044 2 gusting 5 25.0
2017-Jul-23 07:09 085 2 gusting 4 25.0
2017-Jul-23 07:04 054 1 gusting 5 25.0
2017-Jul-23 06:59 041 1 gusting 4 25.0
2017-Jul-23 06:54 268 1 gusting 2 25.0
2017-Jul-23 06:49 292 1 gusting 4 25.0
2017-Jul-23 06:44 308 2 gusting 2 24.4
2017-Jul-23 06:39 064 2 gusting 5 24.4
2017-Jul-23 06:34 175 1 gusting 4 24.4
2017-Jul-23 06:29 126 1 gusting 5 24.4
2017-Jul-23 06:24 149 2 gusting 4 24.4
2017-Jul-23 06:19 160 2 gusting 4 24.4
2017-Jul-23 06:14 355 1 gusting 6 24.4
2017-Jul-23 06:09 005 1 gusting 4 24.4
2017-Jul-23 06:04 013 1 gusting 5 24.4
2017-Jul-23 05:59 036 1 gusting 4 24.4
2017-Jul-23 05:54 038 2 gusting 2 24.4
2017-Jul-23 05:49 039 2 gusting 4 24.4
2017-Jul-23 05:44 027 1 gusting 5 23.9
2017-Jul-23 05:39 029 1 gusting 4 23.9
2017-Jul-23 05:34 054 1 gusting 4 23.9
2017-Jul-23 05:29 029 1 gusting 4 23.9
2017-Jul-23 05:24 075 1 gusting 4 23.9
2017-Jul-23 05:19 051 1 gusting 2 23.9
2017-Jul-23 05:14 023 0 gusting 4 23.9
2017-Jul-23 05:09 129 0 gusting 2 23.9
2017-Jul-23 05:04 158 1 gusting 1 23.9
2017-Jul-23 04:59 133 1 gusting 2 23.9
2017-Jul-23 04:54 133 4 gusting 4 23.3
2017-Jul-23 04:49 101 4 gusting 6 23.9
2017-Jul-23 04:44 096 1 gusting 5 23.9
2017-Jul-23 04:39 106 1 gusting 6 23.9
2017-Jul-23 04:34 041 1 gusting 2 23.9
2017-Jul-23 04:29 027 1 gusting 4 23.9
2017-Jul-23 04:24 057 1 gusting 1 23.9
2017-Jul-23 04:19 031 1 gusting 4 23.9
2017-Jul-23 04:14 012 1 gusting 4 24.4
2017-Jul-23 04:09 330 1 gusting 4 24.4
2017-Jul-23 04:04 034 1 gusting 4 23.9
2017-Jul-23 03:59 030 1 gusting 4 24.4
2017-Jul-23 03:54 033 1 gusting 4 24.4
2017-Jul-23 03:49 048 1 gusting 2 24.4
2017-Jul-23 03:44 075 1 gusting 4 24.4
2017-Jul-23 03:39 341 1 gusting 5 24.4
2017-Jul-23 03:34 312 1 gusting 4 24.4
2017-Jul-23 03:29 307 1 gusting 2 24.4
2017-Jul-23 03:24 045 1 gusting 2 24.4
2017-Jul-23 03:19 046 1 gusting 5 24.4
2017-Jul-23 03:14 095 1 gusting 1 24.4
2017-Jul-23 03:09 092 1 gusting 4 24.4
2017-Jul-23 03:04 128 1 gusting 5 24.4
2017-Jul-23 02:59 046 1 gusting 5 24.4
2017-Jul-23 02:54 013 1 gusting 4 24.4
2017-Jul-23 02:49 035 1 gusting 2 24.4
2017-Jul-23 02:44 316 2 gusting 4 25.0
2017-Jul-23 02:39 176 2 gusting 5 25.0
2017-Jul-23 02:34 212 4 gusting 5 25.0
2017-Jul-23 02:29 158 4 gusting 5 25.0
2017-Jul-23 02:24 165 2 gusting 5 25.0
2017-Jul-23 02:19 176 2 gusting 6 25.0
2017-Jul-23 02:14 171 2 gusting 4 25.0
2017-Jul-23 02:09 129 2 gusting 4 25.0
2017-Jul-23 02:04 160 2 gusting 5 25.0
2017-Jul-23 01:59 115 2 gusting 5 25.0
2017-Jul-23 01:54 074 1 gusting 5 25.6
2017-Jul-23 01:49 156 1 gusting 5 25.6
2017-Jul-23 01:44 181 1 gusting 4 25.6
2017-Jul-23 01:39 176 1 gusting 4 25.0
2017-Jul-23 01:34 032 1 gusting 2 25.0
2017-Jul-23 01:29 037 1 gusting 2 25.6
2017-Jul-23 01:24 334 1 gusting 2 25.6
2017-Jul-23 01:19 061 1 gusting 2 25.6
2017-Jul-23 01:14 120 1 gusting 2 25.6
2017-Jul-23 01:09 126 1 gusting 4 25.0
2017-Jul-23 01:04 127 2 gusting 6 25.0
2017-Jul-23 00:59 090 2 gusting 5 25.0
2017-Jul-23 00:54 141 5 gusting 5 25.0
2017-Jul-23 00:49 120 5 gusting 6 25.0
2017-Jul-23 00:44 170 4 gusting 7 25.0
2017-Jul-23 00:39 151 4 gusting 7 25.0
2017-Jul-23 00:34 115 2 gusting 7 25.0
2017-Jul-23 00:29 134 2 gusting 7 25.0
2017-Jul-23 00:24 112 2 gusting 5 25.0
2017-Jul-23 00:19 114 2 gusting 5 25.0
2017-Jul-23 00:14 323 4 gusting 6 25.0
2017-Jul-23 00:09 313 4 gusting 6 25.0
2017-Jul-23 00:04 312 1 gusting 5 25.0
2017-Jul-22 23:59 313 1 gusting 5 25.0
2017-Jul-22 23:54 262 1 gusting 4 25.0
2017-Jul-22 23:49 320 1 gusting 4 25.0
2017-Jul-22 23:44 044 1 gusting 1 25.0
2017-Jul-22 23:39 312 1 gusting 4 25.0
2017-Jul-22 23:34 315 1 gusting 4 25.0
2017-Jul-22 23:29 025 1 gusting 1 25.0
2017-Jul-22 23:24 322 1 gusting 4 25.0
2017-Jul-22 23:19 327 1 gusting 4 25.0
2017-Jul-22 23:14 340 1 gusting 4 25.0
2017-Jul-22 23:09 343 1 gusting 4 25.0
2017-Jul-22 23:04 038 2 gusting 4 25.0
2017-Jul-22 22:59 033 2 gusting 2 25.0
2017-Jul-22 22:54 330 1 gusting 4 25.6
2017-Jul-22 22:49 335 1 gusting 5 25.6
2017-Jul-22 22:44 355 1 gusting 5 25.6
2017-Jul-22 22:39 016 1 gusting 4 25.6
2017-Jul-22 22:34 003 1 gusting 4 25.6
2017-Jul-22 22:29 028 1 gusting 2 25.6
2017-Jul-22 22:24 079 4 gusting 4 25.6
2017-Jul-22 22:19 051 4 gusting 4 25.6
2017-Jul-22 22:14 028 4 gusting 6 25.6
2017-Jul-22 22:09 073 4 gusting 6 25.6
2017-Jul-22 22:04 081 4 gusting 7 25.6
2017-Jul-22 21:59 070 4 gusting 7 26.1
2017-Jul-22 21:54 094 5 gusting 6 26.1
2017-Jul-22 21:49 090 5 gusting 6 26.1
2017-Jul-22 21:44 089 5 gusting 7 26.1
2017-Jul-22 21:39 083 5 gusting 8 26.1
2017-Jul-22 21:34 083 4 gusting 8 26.1
2017-Jul-22 21:29 086 4 gusting 10 26.1
2017-Jul-22 21:24 078 4 gusting 6 26.1
2017-Jul-22 21:19 046 4 gusting 7 26.1
2017-Jul-22 21:14 058 4 gusting 6 26.1
2017-Jul-22 21:09 049 4 gusting 6 26.1
2017-Jul-22 21:04 032 5 gusting 6 26.1
2017-Jul-22 20:59 032 5 gusting 6 26.1
2017-Jul-22 20:54 044 5 gusting 8 26.1
2017-Jul-22 20:49 040 5 gusting 7 26.1
2017-Jul-22 20:44 044 5 gusting 10 26.7
2017-Jul-22 20:39 041 5 gusting 7 26.7
2017-Jul-22 20:34 039 6 gusting 10 26.7
2017-Jul-22 20:29 034 6 gusting 10 26.7
2017-Jul-22 20:24 041 5 gusting 8 26.7
2017-Jul-22 20:19 029 5 gusting 11 26.7
2017-Jul-22 20:14 036 5 gusting 10 27.2
2017-Jul-22 20:09 029 5 gusting 6 27.2
2017-Jul-22 20:04 038 6 gusting 8 27.2
2017-Jul-22 19:59 036 6 gusting 12 27.2
2017-Jul-22 19:54 032 4 gusting 8 27.2
2017-Jul-22 19:49 057 4 gusting 11 27.8
2017-Jul-22 19:44 021 4 gusting 6 27.8
2017-Jul-22 19:39 063 4 gusting 6 27.8
2017-Jul-22 19:34 094 4 gusting 6 28.3
2017-Jul-22 19:29 048 4 gusting 7 28.3
2017-Jul-22 19:24 061 4 gusting 7 28.3
2017-Jul-22 19:19 055 4 gusting 6 28.9
2017-Jul-22 19:14 047 6 gusting 6 28.9
2017-Jul-22 19:09 051 6 gusting 8 28.9
2017-Jul-22 19:04 099 6 gusting 11 28.9
2017-Jul-22 18:59 089 6 gusting 11 29.4
2017-Jul-22 18:54 101 6 gusting 10 29.4
2017-Jul-22 18:49 101 6 gusting 12 29.4
2017-Jul-22 18:44 103 6 gusting 10 29.4
2017-Jul-22 18:39 092 6 gusting 11 30.0
2017-Jul-22 18:34 114 6 gusting 11 30.0
2017-Jul-22 18:29 099 6 gusting 11 30.6
2017-Jul-22 18:24 102 7 gusting 13 30.6
2017-Jul-22 18:19 115 7 gusting 13 30.6
2017-Jul-22 18:14 105 8 gusting 12 30.6
2017-Jul-22 18:09 119 8 gusting 12 30.6
2017-Jul-22 18:04 121 8 gusting 14 30.6
2017-Jul-22 17:59 117 8 gusting 12 31.1
2017-Jul-22 17:54 114 7 gusting 13 31.1
2017-Jul-22 17:49 114 7 gusting 13 31.1
2017-Jul-22 17:44 123 6 gusting 12 31.1
2017-Jul-22 17:39 122 6 gusting 12 31.7
2017-Jul-22 17:34 115 6 gusting 12 31.7
2017-Jul-22 17:29 117 6 gusting 11 31.7
2017-Jul-22 17:24 116 6 gusting 13 31.7
2017-Jul-22 17:19 123 6 gusting 11 32.2
2017-Jul-22 17:14 113 6 gusting 8 32.2
2017-Jul-22 17:09 120 6 gusting 11 32.2
2017-Jul-22 17:04 113 6 gusting 10 32.2
2017-Jul-22 16:59 075 6 gusting 12 32.2
2017-Jul-22 16:54 094 6 gusting 11 32.2
2017-Jul-22 16:49 029 6 gusting 11 32.2
2017-Jul-22 16:44 052 6 gusting 11 32.2
2017-Jul-22 16:39 036 6 gusting 11 31.7
2017-Jul-22 16:34 051 6 gusting 11 32.2
2017-Jul-22 16:29 042 6 gusting 13 32.2
2017-Jul-22 16:24 043 6 gusting 13 32.2
2017-Jul-22 16:19 039 6 gusting 13 32.2
2017-Jul-22 16:14 062 6 gusting 11 32.2
2017-Jul-22 16:09 056 6 gusting 13 32.2
2017-Jul-22 16:04 041 6 gusting 13 32.2
2017-Jul-22 15:59 040 6 gusting 10 32.2
2017-Jul-22 15:54 048 6 gusting 11 32.2
2017-Jul-22 15:49 035 6 gusting 11 32.2
2017-Jul-22 15:44 063 7 gusting 13 32.2
2017-Jul-22 15:39 056 7 gusting 13 32.2
2017-Jul-22 15:34 068 8 gusting 13 32.2
2017-Jul-22 15:29 043 8 gusting 13 32.2
2017-Jul-22 15:24 063 10 gusting 13 32.2
2017-Jul-22 15:19 026 10 gusting 17 32.2
2017-Jul-22 15:14 027 11 gusting 15 32.2
2017-Jul-22 15:09 019 11 gusting 15 32.2
2017-Jul-22 15:04 025 8 gusting 18 31.7
2017-Jul-22 14:59 015 8 gusting 18 31.7
2017-Jul-22 14:54 020 8 gusting 15 32.2
2017-Jul-22 14:49 039 8 gusting 14 32.2
2017-Jul-22 14:44 024 8 gusting 13 32.2
2017-Jul-22 14:39 034 8 gusting 18 32.2
2017-Jul-22 14:34 033 8 gusting 13 32.2
2017-Jul-22 14:29 023 8 gusting 18 32.2
2017-Jul-22 14:24 048 8 gusting 18 32.2
2017-Jul-22 14:19 032 8 gusting 13 31.7
2017-Jul-22 14:14 023 8 gusting 14 31.7
2017-Jul-22 14:09 036 8 gusting 14 31.7
2017-Jul-22 14:04 036 7 gusting 13 31.7
2017-Jul-22 13:59 017 7 gusting 14 31.7
2017-Jul-22 13:54 040 6 gusting 14 32.2
2017-Jul-22 13:49 062 6 gusting 12 32.8
2017-Jul-22 13:44 058 6 gusting 12 32.2
2017-Jul-22 13:39 028 6 gusting 13 32.2
2017-Jul-22 13:34 009 8 gusting 13 31.7
2017-Jul-22 13:29 004 8 gusting 13 31.7
2017-Jul-22 13:24 034 7 gusting 14 31.7
2017-Jul-22 13:19 023 7 gusting 13 31.7
2017-Jul-22 13:14 034 6 gusting 14 31.7
2017-Jul-22 13:09 066 6 gusting 14 31.7
2017-Jul-22 13:04 040 6 gusting 13 31.7
2017-Jul-22 12:59 015 6 gusting 13 31.7
2017-Jul-22 12:54 018 7 gusting 13 31.7
2017-Jul-22 12:49 036 7 gusting 12 31.1
2017-Jul-22 12:44 045 6 gusting 13 31.7
2017-Jul-22 12:39 31.7
2017-Jul-22 12:34 030 6 gusting 11 31.7
2017-Jul-22 12:29 074 6 gusting 11 31.1
2017-Jul-22 12:24 032 6 gusting 11 31.1
2017-Jul-22 12:19 021 6 gusting 13 31.1
2017-Jul-22 12:14 018 6 gusting 11 30.6
2017-Jul-22 12:09 033 6 gusting 13 30.6
2017-Jul-22 12:04 026 5 gusting 11 31.1
2017-Jul-22 11:59 042 5 gusting 10 31.1
2017-Jul-22 11:54 079 6 gusting 10 30.6
2017-Jul-22 11:49 047 6 gusting 11 30.6
2017-Jul-22 11:44 354 7 gusting 14 30.6
2017-Jul-22 11:39 029 7 gusting 12 30.6
2017-Jul-22 11:34 022 6 gusting 13 30.6
2017-Jul-22 11:29 033 6 gusting 11 30.6
2017-Jul-22 11:24 036 5 gusting 13 30.0
2017-Jul-22 11:19 027 5 gusting 12 30.6
2017-Jul-22 11:14 057 6 gusting 8 30.0
2017-Jul-22 11:09 022 6 gusting 13 30.0
2017-Jul-22 11:04 038 6 gusting 13 30.0
2017-Jul-22 10:59 032 6 gusting 11 30.0
2017-Jul-22 10:54 337 4 gusting 10 29.4
2017-Jul-22 10:49 040 4 gusting 12 29.4
2017-Jul-22 10:44 037 5 gusting 8 29.4
2017-Jul-22 10:39 026 5 gusting 8 29.4
2017-Jul-22 10:34 049 6 gusting 11 29.4
2017-Jul-22 10:29 017 6 gusting 13 28.9
2017-Jul-22 10:24 046 4 gusting 10 28.9
2017-Jul-22 10:19 338 4 gusting 8 28.9
2017-Jul-22 10:14 022 5 gusting 8 28.9
2017-Jul-22 10:09 010 5 gusting 7 28.9
2017-Jul-22 10:04 355 5 gusting 8 28.3
2017-Jul-22 09:59 029 5 gusting 10 28.3
2017-Jul-22 09:54 017 6 gusting 8 28.3
2017-Jul-22 09:49 021 6 gusting 10 27.8
2017-Jul-22 09:44 091 6 gusting 10 27.8
2017-Jul-22 09:39 024 6 gusting 10 27.8
2017-Jul-22 09:34 070 5 gusting 10 27.8
2017-Jul-22 09:29 024 5 gusting 11 27.8
2017-Jul-22 09:24 020 4 gusting 11 27.8
2017-Jul-22 09:19 021 4 gusting 12 27.8
2017-Jul-22 09:14 018 6 gusting 8 27.2
2017-Jul-22 09:09 329 6 gusting 8 27.2
2017-Jul-22 09:04 025 5 gusting 10 27.2
2017-Jul-22 08:59 355 5 gusting 11 26.7
2017-Jul-22 08:54 048 6 gusting 7 26.7
2017-Jul-22 08:49 005 6 gusting 11 26.7
2017-Jul-22 08:44 051 5 gusting 11 26.7
2017-Jul-22 08:39 039 5 gusting 11 26.7
2017-Jul-22 08:34 033 5 gusting 7 26.7
2017-Jul-22 08:29 007 5 gusting 8 26.7
2017-Jul-22 08:24 028 4 gusting 8 26.7
2017-Jul-22 08:19 014 4 gusting 7 26.7
2017-Jul-22 08:14 048 4 gusting 6 26.1
2017-Jul-22 08:09 034 4 gusting 6 26.1
2017-Jul-22 08:04 004 5 gusting 6 26.1
2017-Jul-22 07:59 032 5 gusting 8 26.1
2017-Jul-22 07:54 031 4 gusting 8 26.1
2017-Jul-22 07:49 042 4 gusting 6 25.6
2017-Jul-22 07:44 029 4 gusting 6 25.6
2017-Jul-22 07:39 051 4 gusting 5 25.6
2017-Jul-22 07:34 027 2 gusting 6 25.6
2017-Jul-22 07:29 025 2 gusting 6 25.6
2017-Jul-22 07:24 009 2 gusting 6 25.6
2017-Jul-22 07:19 001 2 gusting 5 25.6
2017-Jul-22 07:14 035 2 gusting 5 25.0
2017-Jul-22 07:09 037 2 gusting 5 25.6
2017-Jul-22 07:04 019 2 gusting 5 25.6
2017-Jul-22 06:59 059 2 gusting 4 25.0
2017-Jul-22 06:54 049 2 gusting 4 25.0
2017-Jul-22 06:49 038 2 gusting 5 25.0
2017-Jul-22 06:44 036 1 gusting 4 25.0
2017-Jul-22 06:39 013 1 gusting 4 25.0
2017-Jul-22 06:34 018 1 gusting 4 25.0
2017-Jul-22 06:29 035 1 gusting 2 25.0
2017-Jul-22 06:24 019 1 gusting 2 25.0
2017-Jul-22 06:19 017 1 gusting 2 24.4
2017-Jul-22 06:14 064 1 gusting 4 24.4
2017-Jul-22 06:09 057 1 gusting 2 24.4
2017-Jul-22 06:04 101 1 gusting 2 24.4
2017-Jul-22 05:59 089 1 gusting 4 23.9
2017-Jul-22 05:54 086 1 gusting 1 23.9
2017-Jul-22 05:49 087 1 gusting 2 23.9
2017-Jul-22 05:44 087 1 gusting 1 23.9
2017-Jul-22 05:39 087 1 gusting 1 23.3
2017-Jul-22 05:34 087 1 gusting 1 23.3
2017-Jul-22 05:29 086 1 gusting 5 23.3
2017-Jul-22 05:24 103 1 gusting 5 23.9
2017-Jul-22 05:19 240 1 gusting 2 23.9
2017-Jul-22 05:14 257 1 gusting 2 23.9
2017-Jul-22 05:09 268 1 gusting 4 23.9
2017-Jul-22 05:04 256 1 gusting 4 23.9
2017-Jul-22 04:59 162 1 gusting 4 23.9
2017-Jul-22 04:54 174 1 gusting 2 23.9
2017-Jul-22 04:49 156 1 gusting 4 23.9
2017-Jul-22 04:44 159 2 gusting 4 23.9
2017-Jul-22 04:39 143 2 gusting 5 23.9
2017-Jul-22 04:34 144 1 gusting 5 23.9
2017-Jul-22 04:29 147 1 gusting 4 23.9
2017-Jul-22 04:24 150 1 gusting 4 23.9
2017-Jul-22 04:19 127 1 gusting 4 23.9
2017-Jul-22 04:14 122 1 gusting 4 23.9
2017-Jul-22 04:09 161 1 gusting 4 24.4
2017-Jul-22 04:04 277 2 gusting 1 24.4
2017-Jul-22 03:59 311 2 gusting 4 24.4
2017-Jul-22 03:54 235 2 gusting 4 24.4
2017-Jul-22 03:49 199 2 gusting 5 24.4
2017-Jul-22 03:44 179 4 gusting 4 24.4
2017-Jul-22 03:39 181 4 gusting 5 24.4
2017-Jul-22 03:34 155 1 gusting 5 24.4
2017-Jul-22 03:29 138 1 gusting 4 24.4
2017-Jul-22 03:24 133 24.4
2017-Jul-22 03:19 180 24.4
2017-Jul-22 03:14 181 1 gusting 1 24.4
2017-Jul-22 03:09 181 1 gusting 1 24.4
2017-Jul-22 03:04 157 1 gusting 1 24.4
2017-Jul-22 02:59 180 1 gusting 2 24.4
2017-Jul-22 02:54 156 1 gusting 4 24.4
2017-Jul-22 02:49 169 1 gusting 4 24.4
2017-Jul-22 02:44 189 2 gusting 4 24.4
2017-Jul-22 02:39 232 2 gusting 4 24.4
2017-Jul-22 02:34 193 2 gusting 4 24.4
2017-Jul-22 02:29 202 2 gusting 4 24.4
2017-Jul-22 02:24 173 1 gusting 4 24.4
2017-Jul-22 02:19 192 1 gusting 4 24.4
2017-Jul-22 02:14 190 2 gusting 2 24.4
2017-Jul-22 02:09 188 2 gusting 4 24.4
2017-Jul-22 02:04 148 4 gusting 5 24.4
2017-Jul-22 01:59 167 4 gusting 6 24.4
2017-Jul-22 01:54 164 1 gusting 6 24.4
2017-Jul-22 01:49 147 1 gusting 6 24.4
2017-Jul-22 01:44 296 1 gusting 2 24.4
2017-Jul-22 01:39 316 1 gusting 2 24.4
2017-Jul-22 01:34 296 1 gusting 1 24.4
2017-Jul-22 01:29 279 1 gusting 2 24.4
2017-Jul-22 01:24 291 1 gusting 4 24.4
2017-Jul-22 01:19 282 1 gusting 4 24.4
2017-Jul-22 01:14 305 1 gusting 1 24.4
2017-Jul-22 01:09 305 1 gusting 1 24.4
2017-Jul-22 01:04 328 1 gusting 2 24.4
2017-Jul-22 00:59 054 1 gusting 1 24.4
2017-Jul-22 00:54 054 1 gusting 2 24.4
2017-Jul-22 00:49 048 1 gusting 4 24.4
2017-Jul-22 00:44 328 1 gusting 1 24.4
2017-Jul-22 00:39 315 1 gusting 4 24.4
2017-Jul-22 00:34 359 1 gusting 4 24.4
2017-Jul-22 00:29 032 1 gusting 2 25.0
2017-Jul-22 00:24 013 1 gusting 2 25.0
2017-Jul-22 00:19 001 1 gusting 4 25.0
2017-Jul-22 00:14 323 4 gusting 4 25.0
2017-Jul-22 00:09 013 4 gusting 5 25.0
2017-Jul-22 00:04 25.0
2017-Jul-21 23:59 016 2 gusting 5 25.0
2017-Jul-21 23:54 017 2 gusting 4 25.0
2017-Jul-21 23:49 038 2 gusting 5 25.0
2017-Jul-21 23:44 035 2 gusting 5 25.0
2017-Jul-21 23:39 013 2 gusting 5 25.0
2017-Jul-21 23:34 028 2 gusting 5 25.6
2017-Jul-21 23:29 026 2 gusting 4 25.6
2017-Jul-21 23:24 052 4 gusting 5 25.6
2017-Jul-21 23:19 110 4 gusting 5 25.6
2017-Jul-21 23:14 109 4 gusting 5 25.6
2017-Jul-21 23:09 062 4 gusting 7 25.6
2017-Jul-21 23:04 033 4 gusting 7 25.6
2017-Jul-21 22:59 044 4 gusting 6 25.6
2017-Jul-21 22:54 046 4 gusting 6 25.6
2017-Jul-21 22:49 042 4 gusting 7 25.6
2017-Jul-21 22:44 042 5 gusting 6 25.6
2017-Jul-21 22:39 033 5 gusting 7 25.6
2017-Jul-21 22:34 030 5 gusting 6 25.6
2017-Jul-21 22:29 036 5 gusting 7 25.6
2017-Jul-21 22:24 038 5 gusting 6 25.6
2017-Jul-21 22:19 050 5 gusting 6 25.6
2017-Jul-21 22:14 039 4 gusting 7 25.6
2017-Jul-21 22:09 041 4 gusting 6 25.6
2017-Jul-21 22:04 029 5 gusting 6 26.1